Terminal Aerodrome Forecast
Issued by NWS Twin Cities, MN

Home | Current Version | Previous Version | Text Only | Print | Product List | Glossary Off
Versions: 1 2 3 4 5 6 7 8 9 10 11 12 13 14 15 16 17 18 19 20 21 22 23 24 25

000
FTUS43 KMPX 250845 AAA
TAFMSP
TAF AMD
KMSP 250845Z 2509/2612 28004KT 6SM BR SKC
     FM251230 07003KT P6SM SCT200
     FM251700 10006KT P6SM BKN150=

USA.gov is the U.S. government's official web portal to all federal, state and local government web resources and services.